Погода в Учкызыле

Узбекистан     37°20′27″N   67°13′44″E
темп.,
°C
ветер,
м/с
пор.,
м/с
влажн.,
%
обл.,
%
осадки,
мм/ч
давл.,
гПа
погр.,
м
27 февраля, сб
сб2723:00+1зсз22280 0.0 103051
02:000зсз12310 0.0 102921
05:000з23310 0.0 102926
08:000зюз233035 0.0 1030125
11:00+3вюв012740 0.0 1031575
14:00+7в23290 0.0 1029936
17:00+8в34280 0.0 1028944
20:00+7вюв23380 0.0 102929
28 февраля, вс
вс2823:00+6всв45430 0.0 102760
02:00+5всв55440 0.0 102576
05:00+4всв44470 0.0 102240
08:00+4в44480 0.0 102168
11:00+10в56330 0.0 1020530
14:00+14в56230 0.0 1017887
17:00+15вюв45200 0.0 1017908
20:00+11юв34370 0.0 101833
1 марта, пн
пн123:00+10в34350 0.0 101923
02:00+9всв34300 0.0 101922
05:00+8в34330 0.0 101822
08:00+8в223986 0.0 101922
11:00+15в342246 0.0 1019398
14:00+18в44170 0.0 1018862
17:00+19вюв33170 0.0 1017865
20:00+15юв342952 0.0 101925
2 марта, вт
вт223:00+13в233264 0.0 101923
02:00+12всв342824 0.0 101923
05:00+11всв233062 0.0 101823
08:00+12всв1232100 0.0 101923
11:00+17св1119100 0.0 1019275
14:00+19юз2217100 0.0 1018569
17:00+20зюз4617100 0.0 1018779
20:00+17юз4428100 0.0 102067
3 марта, ср
ср323:00+14зюз333697 0.0 102033
02:00+13ю2239100 0.0 101922
05:00+12ююз114397 0.0 101823
08:00+12зюз124460 0.0 101927
11:00+16ююз223462 0.0 1019438
14:00+18ююв12270 0.0 1017871
17:00+19юв23250 0.0 10151061
20:00+16юв23347 0.0 101523